Hourly Data Report for June 13, 2003

SHERBROOKE A
QUEBEC

45°26'00.000" N
71°41'00.000" W
241.40 m
7028124
71610
YSC

Download Data

Hourly Data (June 2003)
Hourly Data Report for June 13, 2003
TIME
LST
Temp Definition
°C
Dew Point Definition
°C
Rel Hum Definition
%
Precip. Amount Definition
mm

Wind Dir Definition
10's deg

Wind Spd Definition
km/h
Visibility Definition
km
Stn Press Definition
kPa
Hmdx Definition


Wind Chill Definition


Weather Definition


00:00 7.3 6.4 94   8 9 15.0 98.94      
01:00 6.4 5.4 93   7 7 15.0 98.93      
02:00 6.2 5.0 92   8 11 15.0 98.95      
03:00 5.6 4.6 93   7 11 15.0 98.92      
04:00 5.2 4.4 95   8 13 15.0 98.90      
05:00 6.2 5.2 93   9 7 15.0 98.93      
06:00 8.8 6.9 88   7 7 15.0 98.93      
07:00 12.9 8.5 75   5 9 24.1 98.90     Mainly Clear
08:00 16.3 9.9 66   7 9 24.1 98.89     Mainly Clear
09:00 20.1 8.8 48   15 20 24.1 98.85     Mainly Clear
10:00 21.5 9.1 45   13 13 24.1 98.82     Mainly Clear
11:00 22.2 9.0 43   16 17 24.1 98.82     Mostly Cloudy
12:00 21.2 9.6 47   17 9 24.1 98.79     Mostly Cloudy
13:00 19.0 10.0 56   18 15 24.1 98.79     Rain Showers
14:00 17.1 11.3 69   15 11 24.1 98.77     Cloudy
15:00 15.2 12.2 82   12 11 19.3 98.78     Rain Showers
16:00 14.4 12.8 90   5 6 16.1 98.73     Rain
17:00 14.4 13.1 92   8 4 15.0 98.70     Rain
18:00 14.2 12.3 88   11 11 15.0 98.67     Rain
19:00 13.9 12.4 91   11 13 15.0 98.66     Rain
20:00 12.7 11.4 92   10 9 11.3 98.63     Rain
21:00 12.0 11.0 94   9 9 8.0 98.64     Rain
22:00 11.7 11.0 95   7 9 3.7 98.62     Moderate Rain
23:00 11.6 10.9 95   9 6 5.6 98.56     Moderate Rain

Notes on Data Quality.

Legend

  • E = Estimated
  • M = Missing
  • NA = Not Available*
  • [empty] = Indicates an unobserved value
Date modified: